When you browse on this site, cookies collect data to enhance your experience and personalize the content and advertising you see.
Visit our Privacy Policy to learn more. By continuing to use the site, you agree to this use of cookies and data.
  • In Deutschland
  • Länderverzeichnis
  • Für 7 Tage
  • Wassertemperatur
  • Wetterkarte
  • Widgets
  • user-avatar
    Anmelden

    Stündliche Wetter Cegled

    Heute, 17 Februar, Montag

    Zeit Temperatur Niederschläge Wind Luftdruck Luftfeuchtigkeit
    00:00 +4°C° 0 mm 3 m/S 760 mmHg 83%
    01:00 +4°C° 0 mm 3 m/S 759 mmHg 86%
    02:00 +4°C° 0 mm 3 m/S 759 mmHg 86%
    03:00 +4°C° 0 mm 3 m/S 758 mmHg 87%
    04:00 +3°C° 0 mm 3 m/S 758 mmHg 87%
    05:00 +3°C° 0 mm 3 m/S 758 mmHg 87%
    06:00 +3°C° 0 mm 3 m/S 758 mmHg 87%
    07:00 +3°C° 0 mm 3 m/S 759 mmHg 89%
    08:00 +4°C° 0 mm 3 m/S 758 mmHg 82%
    09:00 +7°C° 0 mm 3 m/S 758 mmHg 75%
    10:00 +8°C° 0 mm 3 m/S 758 mmHg 68%
    11:00 +9°C° 0 mm 3 m/S 758 mmHg 64%
    12:00 +11°C° 0 mm 3 m/S 757 mmHg 60%
    13:00 +12°C° 0 mm 3 m/S 757 mmHg 57%
    14:00 +13°C° 0 mm 2 m/S 756 mmHg 60%
    15:00 +13°C° 0 mm 2 m/S 756 mmHg 63%
    16:00 +13°C° 0 mm 2 m/S 755 mmHg 66%
    17:00 +12°C° 0 mm 2 m/S 755 mmHg 70%
    18:00 +10°C° 0 mm 2 m/S 755 mmHg 74%
    19:00 +10°C° 0 mm 2 m/S 756 mmHg 79%
    20:00 +9°C° 0 mm 2 m/S 755 mmHg 82%
    21:00 +8°C° 0 mm 2 m/S 755 mmHg 85%
    22:00 +8°C° 0 mm 2 m/S 755 mmHg 88%
    23:00 +8°C° 0 mm 2 m/S 755 mmHg 88%

    Morgen, 18 Februar, Dienstag

    Zeit Temperatur Niederschläge Wind Luftdruck Luftfeuchtigkeit
    00:00 +8°C° 0 mm 2 m/S 755 mmHg 87%
    01:00 +8°C° 0 mm 2 m/S 755 mmHg 87%
    02:00 +8°C° 0 mm 2 m/S 755 mmHg 87%
    03:00 +8°C° 0 mm 3 m/S 755 mmHg 88%
    04:00 +7°C° 0 mm 3 m/S 755 mmHg 88%
    05:00 +7°C° 0.1 mm 3 m/S 756 mmHg 86%
    06:00 +7°C° 0.1 mm 4 m/S 756 mmHg 84%
    07:00 +7°C° 0.1 mm 4 m/S 757 mmHg 82%
    08:00 +8°C° 0 mm 5 m/S 757 mmHg 75%
    09:00 +8°C° 0 mm 7 m/S 758 mmHg 67%
    10:00 +9°C° 0 mm 8 m/S 759 mmHg 59%
    11:00 +10°C° 0 mm 8 m/S 759 mmHg 57%
    12:00 +10°C° 0 mm 7 m/S 759 mmHg 54%
    13:00 +11°C° 0 mm 7 m/S 759 mmHg 52%
    14:00 +10°C° 0 mm 6 m/S 759 mmHg 52%
    15:00 +10°C° 0 mm 5 m/S 759 mmHg 53%
    16:00 +10°C° 0 mm 5 m/S 758 mmHg 53%
    17:00 +10°C° 0 mm 4 m/S 759 mmHg 57%
    18:00 +8°C° 0 mm 3 m/S 759 mmHg 60%
    19:00 +7°C° 0 mm 3 m/S 759 mmHg 64%
    20:00 +7°C° 0 mm 3 m/S 759 mmHg 66%
    21:00 +5°C° 0 mm 3 m/S 759 mmHg 67%
    22:00 +5°C° 0 mm 3 m/S 760 mmHg 69%
    23:00 +5°C° 0 mm 3 m/S 760 mmHg 70%

    übermorgen, 19 Februar, Mittwoch

    Zeit Temperatur Niederschläge Wind Luftdruck Luftfeuchtigkeit
    00:00 +4°C° 0 mm 3 m/S 760 mmHg 70%
    01:00 +4°C° 0 mm 3 m/S 760 mmHg 71%
    02:00 +4°C° 0 mm 2 m/S 759 mmHg 72%
    03:00 +4°C° 0 mm 2 m/S 759 mmHg 73%
    04:00 +3°C° 0 mm 2 m/S 758 mmHg 74%
    05:00 +3°C° 0 mm 2 m/S 758 mmHg 75%
    06:00 +3°C° 0 mm 2 m/S 758 mmHg 75%
    07:00 +3°C° 0 mm 2 m/S 757 mmHg 76%
    08:00 +4°C° 0 mm 2 m/S 757 mmHg 70%
    09:00 +6°C° 0 mm 2 m/S 757 mmHg 64%
    10:00 +7°C° 0 mm 2 m/S 757 mmHg 57%
    11:00 +8°C° 0 mm 2 m/S 757 mmHg 54%
    12:00 +9°C° 0 mm 3 m/S 756 mmHg 51%
    13:00 +9°C° 0 mm 3 m/S 756 mmHg 47%
    14:00 +9°C° 0 mm 3 m/S 755 mmHg 51%
    15:00 +9°C° 0 mm 2 m/S 755 mmHg 54%
    16:00 +9°C° 0 mm 2 m/S 754 mmHg 58%
    17:00 +8°C° 0 mm 2 m/S 754 mmHg 62%
    18:00 +7°C° 0 mm 3 m/S 754 mmHg 66%
    19:00 +7°C° 0 mm 3 m/S 755 mmHg 70%
    20:00 +5°C° 0.1 mm 3 m/S 755 mmHg 72%
    21:00 +5°C° 0.1 mm 4 m/S 755 mmHg 75%
    22:00 +5°C° 0.1 mm 5 m/S 755 mmHg 78%
    23:00 +3°C° 0 mm 5 m/S 755 mmHg 75%

    20 Februar, Donnerstag

    Zeit Temperatur Niederschläge Wind Luftdruck Luftfeuchtigkeit
    00:00 +3°C° 0 mm 6 m/S 756 mmHg 71%
    01:00 +2°C° 0 mm 6 m/S 756 mmHg 68%
    02:00 +2°C° 0 mm 6 m/S 756 mmHg 69%
    03:00 +1°C° 0 mm 6 m/S 756 mmHg 69%
    04:00 +1°C° 0 mm 6 m/S 756 mmHg 70%
    05:00 +1°C° 0 mm 5 m/S 756 mmHg 71%
    06:00 0°C° 0 mm 5 m/S 757 mmHg 72%
    07:00 0°C° 0 mm 4 m/S 757 mmHg 73%
    08:00 +1°C° 0 mm 4 m/S 757 mmHg 69%
    09:00 +3°C° 0 mm 4 m/S 758 mmHg 64%
    10:00 +5°C° 0 mm 4 m/S 758 mmHg 59%
    11:00 +5°C° 0 mm 5 m/S 758 mmHg 54%
    12:00 +6°C° 0 mm 5 m/S 758 mmHg 50%
    13:00 +7°C° 0 mm 5 m/S 758 mmHg 46%
    14:00 +7°C° 0 mm 5 m/S 758 mmHg 47%
    15:00 +6°C° 0 mm 4 m/S 758 mmHg 47%
    16:00 +6°C° 0 mm 4 m/S 757 mmHg 48%
    17:00 +5°C° 0 mm 3 m/S 758 mmHg 52%
    18:00 +5°C° 0 mm 2 m/S 758 mmHg 57%
    19:00 +4°C° 0 mm 2 m/S 758 mmHg 62%
    20:00 +5°C° 0 mm 1 m/S 758 mmHg 64%
    21:00 +4°C° 0 mm 1 m/S 759 mmHg 65%
    22:00 +4°C° 0 mm 1 m/S 759 mmHg 67%
    23:00 +4°C° 0 mm 1 m/S 759 mmHg 68%

    21 Februar, Freitag

    Zeit Temperatur Niederschläge Wind Luftdruck Luftfeuchtigkeit
    00:00 +4°C° 0 mm 1 m/S 759 mmHg 70%
    01:00 +2°C° 0 mm 2 m/S 759 mmHg 71%
    02:00 +2°C° 0 mm 2 m/S 759 mmHg 72%
    03:00 +2°C° 0 mm 2 m/S 759 mmHg 74%
    04:00 +2°C° 0 mm 2 m/S 759 mmHg 76%
    05:00 +1°C° 0 mm 2 m/S 759 mmHg 76%
    06:00 0°C° 0 mm 3 m/S 759 mmHg 76%
    07:00 0°C° 0 mm 3 m/S 759 mmHg 77%
    14:00 +9°C° 0 mm 6 m/S 760 mmHg 53%
    15:00 +8°C° 0 mm 7 m/S 760 mmHg 55%
    16:00 +8°C° 0 mm 7 m/S 760 mmHg 56%
    17:00 +7°C° 0 mm 6 m/S 760 mmHg 57%
    18:00 +6°C° 0 mm 5 m/S 761 mmHg 57%
    19:00 +3°C° 0 mm 5 m/S 762 mmHg 58%
    20:00 +4°C° 0 mm 4 m/S 762 mmHg 59%
    21:00 +3°C° 0 mm 4 m/S 763 mmHg 60%
    22:00 +3°C° 0 mm 4 m/S 763 mmHg 61%
    23:00 +3°C° 0 mm 4 m/S 763 mmHg 62%

    22 Februar, Samstag

    Zeit Temperatur Niederschläge Wind Luftdruck Luftfeuchtigkeit
    00:00 +1°C° 0 mm 4 m/S 764 mmHg 64%
    01:00 +1°C° 0 mm 4 m/S 764 mmHg 65%
    02:00 +1°C° 0 mm 4 m/S 764 mmHg 67%
    03:00 +1°C° 0 mm 3 m/S 764 mmHg 68%
    04:00 +1°C° 0 mm 3 m/S 764 mmHg 70%
    05:00 +1°C° 0 mm 3 m/S 764 mmHg 71%
    06:00 +2°C° 0 mm 2 m/S 764 mmHg 71%
    07:00 +2°C° 0 mm 2 m/S 764 mmHg 72%
    08:00 +3°C° 0 mm 2 m/S 765 mmHg 67%
    09:00 +4°C° 0 mm 3 m/S 765 mmHg 62%
    10:00 +5°C° 0 mm 3 m/S 765 mmHg 57%
    11:00 +6°C° 0 mm 4 m/S 765 mmHg 55%
    12:00 +7°C° 0 mm 4 m/S 764 mmHg 53%
    13:00 +8°C° 0 mm 5 m/S 764 mmHg 51%
    14:00 +8°C° 0 mm 5 m/S 764 mmHg 52%
    15:00 +8°C° 0 mm 5 m/S 763 mmHg 54%
    16:00 +8°C° 0 mm 4 m/S 763 mmHg 55%
    17:00 +7°C° 0 mm 4 m/S 763 mmHg 58%
    18:00 +6°C° 0 mm 4 m/S 763 mmHg 61%
    19:00 +5°C° 0 mm 3 m/S 763 mmHg 65%
    20:00 +5°C° 0 mm 3 m/S 763 mmHg 64%
    21:00 +5°C° 0 mm 4 m/S 763 mmHg 64%
    22:00 +5°C° 0 mm 4 m/S 763 mmHg 63%
    23:00 +5°C° 0 mm 4 m/S 762 mmHg 64%
    Mehr zeigen